This is the latest recevied weather packets stored in our database for station/object N7IGG. If no packets are shown the sender has not sent any weather packets the latest 10 day(s).
| Time | Temp. | Humidity | Pressure | Rain* | Wind** | Luminosity | Snow |
|---|---|---|---|---|---|---|---|
| 1777681558 | 20.56° C | 55% | 1014.6 hPa | 0 mm | - | 445 W/m² | - |
| 1777681256 | 21.11° C | 54% | 1014.5 hPa | 0 mm | - | 267 W/m² | - |
| 1777680954 | 21.11° C | 54% | 1014.7 hPa | 0 mm | - | 480 W/m² | - |
| 1777680651 | 21.67° C | 53% | 1014.5 hPa | 0 mm | - | 526 W/m² | - |
| 1777680349 | 21.67° C | 53% | 1014.5 hPa | 0 mm | - | 295 W/m² | - |
| 1777680046 | 21.11° C | 56% | 1014.6 hPa | 0 mm | - | 530 W/m² | - |
| 1777679742 | 20.56° C | 55% | 1014.7 hPa | 0 mm | - | 526 W/m² | - |
| 1777679438 | 21.11° C | 57% | 1014.4 hPa | 0 mm | - | 449 W/m² | - |
| 1777679134 | 20.56° C | 56% | 1014.5 hPa | 0 mm | - | 410 W/m² | - |
| 1777678832 | 20.56° C | 55% | 1014.5 hPa | 0 mm | - | 400 W/m² | - |
| 1777678529 | 21.11° C | 54% | 1014.6 hPa | 0 mm | - | 349 W/m² | - |
| 1777678226 | 21.11° C | 55% | 1014.6 hPa | 0 mm | - | 389 W/m² | - |
| 1777677923 | 20.56° C | 55% | 1014.7 hPa | 0 mm | - | 306 W/m² | - |
| 1777677620 | 20.56° C | 58% | 1014.7 hPa | 0 mm | - | 317 W/m² | - |
| 1777677317 | 21.11° C | 58% | 1014.8 hPa | 0 mm | - | 262 W/m² | - |
| 1777677016 | 21.11° C | 57% | 1014.7 hPa | 0 mm | - | 369 W/m² | - |
| 1777676714 | 21.11° C | 57% | 1014.7 hPa | 0 mm | - | 432 W/m² | - |
| 1777676411 | 20.56° C | 58% | 1014.8 hPa | 0 mm | - | 526 W/m² | - |
| 1777676109 | 21.11° C | 58% | 1014.8 hPa | 0 mm | - | 426 W/m² | - |
| 1777675804 | 21.11° C | 57% | 1015 hPa | 0 mm | - | 333 W/m² | - |
| 1777675503 | 20.56° C | 59% | 1015 hPa | 0 mm | - | 436 W/m² | - |
| 1777675199 | 20.56° C | 60% | 1015.2 hPa | 0 mm | - | 488 W/m² | - |
| 1777674896 | 21.11° C | 58% | 1015.1 hPa | 0 mm | - | 420 W/m² | - |
| 1777674591 | 21.11° C | 58% | 1015.2 hPa | 0 mm | - | 476 W/m² | - |
| 1777674288 | 20.56° C | 60% | 1015.1 hPa | 0 mm | - | 443 W/m² | - |
* Rain latest hour (hover to see other rain measurements)
** Current wind speed in m/s (hover to see current wind gust speed)